Location: Hohenfelde
(53.8441°N, 9.6220°E)
Time: 12:42:03
(UTC+00:00)

Cosmos 1190 Rocket - Pass Details

Date: 14 July 2020
Orbit: 756 x 781 km, 74.1° (Epoch: 13 August)

Event Time Altitude Azimuth Distance (km) Brightness Sun altitude
Exits shadow 02:06:35 - 220° (SW) 2,403 5.9 -7.1°
Reaches altitude 10° 02:06:52 10° 221° (SW) 2,296 5.8 -7.1°
Maximum altitude 02:12:01 60° 301° (WNW) 877 4.3 -6.6°
Drops below altitude 10° 02:17:15 10° 22° (NNE) 2,327 8.0 -6.2°
Sets 02:19:41 0° 26° (NNE) 3,262 9.2 -5.9°
